Hourly Data Report for September 19, 2017

All times are specified in Local Standard Time (LST). Add 1 hour to adjust for Daylight Saving Time where and when it is observed.

PENTICTON A
BRITISH COLUMBIA

49°27'45.000" N
119°36'08.000" W
344.40 m
1126146
71889
YYF

Download Data

Hourly Data (September 2017)
Hourly Data Report for September 19, 2017
Temp Definition
°C
Dew Point Temp Definition
°C
Rel Hum Definition
%
Wind Dir Definition
10's deg

Wind Spd Definition
km/h
Visibility Definition
km
Stn Press Definition
kPa
Hmdx Definition


Wind Chill Definition


Weather Definition


TIME
00:00 Legend Double Dagger 4.9 -0.4 68 1 7 24.1 96.43     LegendNANA
01:00 Legend Double Dagger 4.8 -0.4 69 35 9 24.1 96.43     Clear
02:00 Legend Double Dagger 5.5 -0.5 65 1 13 24.1 96.43     LegendNANA
03:00 Legend Double Dagger 4.8 -0.3 70 35 10 24.1 96.45     LegendNANA
04:00 Legend Double Dagger 5.3 -0.3 67 36 12 24.1 96.46     Mostly Cloudy
05:00 Legend Double Dagger 5.0 0.0 70 35 10 24.1 96.47     LegendNANA
06:00 Legend Double Dagger 4.3 -0.3 72 1 10 24.1 96.52     LegendNANA
07:00 Legend Double Dagger 5.9 1.4 73 36 5 24.1 96.56     Mostly Cloudy
08:00 Legend Double Dagger 9.7 2.6 61 3 5 24.1 96.57     LegendNANA
09:00 Legend Double Dagger 10.4 2.9 60 36 3 24.1 96.56     LegendNANA
10:00 Legend Double Dagger 12.5 2.3 50 34 6 24.1 96.53     Mostly Cloudy
11:00 Legend Double Dagger 13.0 1.8 46 11 4 24.1 96.48     LegendNANA
12:00 Legend Double Dagger 14.8 2.1 42 16 10 24.1 96.42     LegendNANA
13:00 Legend Double Dagger 14.7 2.3 43 16 14 24.1 96.35     Mostly Cloudy
14:00 Legend Double Dagger 14.9 2.5 43 18 13 24.1 96.34     LegendNANA
15:00 Legend Double Dagger 13.5 4.1 53 20 10 24.1 96.38     Rain Showers
16:00 Legend Double Dagger 11.7 6.5 70 22 17 24.1 96.41     Rain Showers
17:00 Legend Double Dagger 10.4 6.7 78 18 20 24.1 96.43     Rain Showers
18:00 Legend Double Dagger 10.6 6.4 75 14 14 24.1 96.41     LegendNANA
19:00 Legend Double Dagger 10.1 5.7 74 35 8 24.1 96.44     Mostly Cloudy
20:00 Legend Double Dagger 9.9 6.6 80   0 24.1 96.47     Rain
21:00 Legend Double Dagger 8.8 7.2 90 19 12 24.1 96.41     Rain
22:00 Legend Double Dagger 7.7 6.6 93 2 8 24.1 96.37     Mostly Cloudy
23:00                    

Notes on Data Quality.

Legend

  • E = Estimated
  • M = Missing
  • NA = Not Available
  • ‡ = Partner data that is not subject to review by the National Climate Archives
Date modified: